National Weather Service Raw Text Product

Displaying AFOS PIL: RWRIA Received: 2017-08-13 15:00 UTC


665 
ASUS43 KDMX 131506
RWRIA 

WEATHER ROUNDUP FOR IOWA
NATIONAL WEATHER SERVICE DES MOINES IA
1000 AM CDT SUN AUG 13 2017

NOTE: "FAIR" INDICATES FEW OR NO CLOUDS BELOW 12,000 FEET WITH NO
SIGNIFICANT WEATHER AND/OR OBSTRUCTIONS TO VISIBILITY.

* - THESE STATIONS ARE NOT NWS STATIONS...THUS NOT UNDER NWS
QUALITY CONTROL.  THEY ALSO DO NOT REPORT WEATHER SUCH 
AS PRECIPITATION OR FOG.  

IAZ001>003-012>014-020>022-031>034-043>046-131600-
   NORTHWEST IOWA
  
CITY           SKY/WX    TMP DP  RH WIND       PRES   REMARKS
CARROLL *      CLOUDY    66  64  94 CALM      30.02S                  
CHEROKEE *     CLOUDY    67  61  79 S9        30.00R                  
DENISON *      MOSUNNY   63  61  94 NE3       30.03S                  
LE MARS *      CLOUDY    64  63  94 SE12      29.96F                  
ORANGE CITY *  PTSUNNY   68  64  88 S13       29.97S                  
SHELDON *      PTSUNNY   66  61  82 S9G17     29.95F                  
SIOUX CITY     CLOUDY    64  63  96 SE13      29.97S                  
SPENCER        CLOUDY    67  60  78 S7        29.99F                  
STORM LAKE *   CLOUDY    64  59  82 S12       30.02R                  
$$
 
IAZ055>058-069>071-079>083-090>094-131600-
   SOUTHWEST IOWA
  
CITY           SKY/WX    TMP DP  RH WIND       PRES   REMARKS
ATLANTIC *     CLOUDY    66  61  82 S7        30.01F                  
AUDUBON *      LGT RAIN  64  61  88 SE3       30.03S                  
CLARINDA *     CLOUDY    70  64  83 SE5       30.04S                  
COUNCIL BLFS * LGT RAIN  64  64 100 SE9       30.00R                  
CRESTON *      PTSUNNY   72  59  64 S9        30.04S                  
HARLAN  *      MOSUNNY   66  63  88 VRB6      30.04R                  
LAMONI         CLOUDY    69  60  73 S6        30.04S                  
RED OAK *      MOSUNNY   70  61  73 S9        30.01S                  
SHENANDOAH *   CLOUDY    70  63  78 SE8       30.01S                  
$$
 
IAZ047>049-059>061-072>074-084-131600-
   CENTRAL IOWA
  
CITY           SKY/WX    TMP DP  RH WIND       PRES   REMARKS
AMES           CLOUDY    65  63  93 SE6       30.04S                  
ANKENY *       MOSUNNY   68  59  73 S7        30.05S                  
BOONE *        CLOUDY    66  61  82 S7        30.03S                  
CHARITON *     CLOUDY    72  57  60 SE8       30.04S                  
DES MOINES     CLOUDY    69  57  65 SE7       30.03S                  
GRINNELL*      CLOUDY    65  56  75 SE8       30.07S                  
KNOXVILLE *    CLOUDY    70  57  64 SE9       30.04S                  
MARSHALLTOWN   LGT RAIN  63  58  83 S8        30.05S                  
NEWTON *       CLOUDY    66  57  72 SE9       30.05S                  
PELLA *        CLOUDY    69  56  64 SE5       30.06S                  
PERRY *        PTSUNNY   66  63  90 SE5       30.03S                  
$$
 
IAZ004>006-015-016-023>025-035-036-131600-
   NORTH CENTRAL IOWA
  
CITY           SKY/WX    TMP DP  RH WIND       PRES   REMARKS
ALGONA *       CLOUDY    63  57  82 S8        30.02F                  
CLARION *      CLOUDY    63  61  94 SE5       30.03F                  
ESTHERVILLE    LGT RAIN  62  60  93 S8        29.99F                  
FORT DODGE *   CLOUDY    64  55  72 S5        30.04S                  
MASON CITY     CLOUDY    65  55  70 SE8       30.05S                  
FOREST CITY *  CLOUDY    64  54  68 S7        30.04R                  
WEBSTER CITY * CLOUDY    64  59  82 S6        30.01F                  
IOWA FALLS *   PTSUNNY   63  56  80 SE5       30.06S                  
$$

IAZ007>011-017>019-026>030-037>042-050>054-066-131600-
   NORTHEAST IOWA
  
CITY           SKY/WX    TMP DP  RH WIND       PRES   REMARKS
CEDAR RAPIDS   CLOUDY    68  59  73 S6        30.07S                  
CHARLES CITY * PTSUNNY   64  59  82 SE8       30.06S                  
CLINTON *      SUNNY     70  60  70 S3        30.09S                  
DECORAH *      CLOUDY    64  57  77 CALM      30.06F                  
DUBUQUE        CLOUDY    68  58  70 S5        30.09S                  
MONTICELLO *   CLOUDY    68  61  77 SE3       30.07F                  
OELWEIN *      CLOUDY    64  61  88 S6        30.08S                  
WATERLOO       PTSUNNY   68  55  63 SE9       30.05S                  
$$
 
IAZ064-065-067-068-078-131600-
   EAST CENTRAL IOWA
  
CITY           SKY/WX    TMP DP  RH WIND       PRES   REMARKS
DAVENPORT      MOSUNNY   69  58  67 E5        30.10S                  
IOWA CITY      CLOUDY    69  58  67 SE7       30.08S                  
MT. PLEASANT * SUNNY     72  59  62 S10       30.08R                  
MUSCATINE *    MOSUNNY   70  55  60 SE5       30.08S                  
QUAD CITIES    PTSUNNY   70  58  65 SE5       30.08S                  
$$
 
IAZ062-063-075>077-085>089-095>099-131600-
   SOUTHEAST IOWA
  
CITY           SKY/WX    TMP DP  RH WIND       PRES   REMARKS
BURLINGTON     SUNNY     70  61  73 SE7       30.07F                  
FAIRFIELD *    CLOUDY    73  54  49 S12       30.06S                  
FORT MADISON * SUNNY     70  63  78 S8        30.08S                  
KEOKUK *       SUNNY     72  59  64 SE10      30.06S                  
OSKALOOSA *      N/A     71  58  62 SE8       30.06S                  
OTTUMWA        CLOUDY    71  56  58 S8        30.06R                  
WASHINGTON *   PTSUNNY   70  61  73 VRB6      30.08S                  
$$

ABBREVIATIONS USED IN REMARKS
   TC - TEMPERATURES IN CELSIUS
  WCI - WIND CHILL INDEX
   HX - HEAT INDEX
  VSB - VISIBILITY  
$$

  

234 
ASUS43 KDMX 131501
RWRIA 

WEATHER ROUNDUP FOR IOWA
NATIONAL WEATHER SERVICE DES MOINES IA
1000 AM CDT SUN AUG 13 2017

NOTE: "FAIR" INDICATES FEW OR NO CLOUDS BELOW 12,000 FEET WITH NO
SIGNIFICANT WEATHER AND/OR OBSTRUCTIONS TO VISIBILITY.

* - THESE STATIONS ARE NOT NWS STATIONS...THUS NOT UNDER NWS
QUALITY CONTROL.  THEY ALSO DO NOT REPORT WEATHER SUCH 
AS PRECIPITATION OR FOG.  

IAZ001>003-012>014-020>022-031>034-043>046-131600-
   NORTHWEST IOWA
  
CITY           SKY/WX    TMP DP  RH WIND       PRES   REMARKS
CARROLL *      CLOUDY    66  64  94 CALM      30.02S                  
CHEROKEE *     CLOUDY    67  61  79 S9        30.00R                  
DENISON *      MOSUNNY   63  61  94 NE3       30.03S                  
LE MARS *      CLOUDY    64  63  94 SE12      29.96F                  
ORANGE CITY *  PTSUNNY   68  64  88 S13       29.97S                  
SHELDON *      PTSUNNY   66  61  82 S9G17     29.95F                  
SIOUX CITY     CLOUDY    64  63  96 SE13      29.97S                  
SPENCER        CLOUDY    67  60  78 S7        29.99F                  
STORM LAKE *   CLOUDY    64  59  82 S12       30.02R                  
$$
 
IAZ055>058-069>071-079>083-090>094-131600-
   SOUTHWEST IOWA
  
CITY           SKY/WX    TMP DP  RH WIND       PRES   REMARKS
ATLANTIC *     CLOUDY    66  61  82 S7        30.01F                  
AUDUBON *      LGT RAIN  64  61  88 SE3       30.03S                  
CLARINDA *     CLOUDY    70  64  83 SE5       30.04S                  
COUNCIL BLFS * LGT RAIN  64  64 100 SE9       30.00R                  
CRESTON *      PTSUNNY   72  59  64 S9        30.04S                  
HARLAN  *      MOSUNNY   66  63  88 VRB6      30.04R                  
LAMONI         CLOUDY    69  60  73 S6        30.04S                  
RED OAK *      MOSUNNY   70  61  73 S9        30.01S                  
SHENANDOAH *   CLOUDY    70  63  78 SE8       30.01S                  
$$
 
IAZ047>049-059>061-072>074-084-131600-
   CENTRAL IOWA
  
CITY           SKY/WX    TMP DP  RH WIND       PRES   REMARKS
AMES           CLOUDY    65  63  93 SE6       30.04S                  
ANKENY *       MOSUNNY   68  59  73 S7        30.05S                  
BOONE *        CLOUDY    66  61  82 S7        30.03S                  
CHARITON *     CLOUDY    72  57  60 SE8       30.04S                  
DES MOINES     CLOUDY    69  57  65 SE7       30.03S                  
GRINNELL*      CLOUDY    65  56  75 SE8       30.07S                  
KNOXVILLE *    CLOUDY    70  57  64 SE9       30.04S                  
MARSHALLTOWN   LGT RAIN  63  58  83 S8        30.05S                  
NEWTON *       CLOUDY    66  57  72 SE9       30.05S                  
PELLA *        CLOUDY    69  56  64 SE5       30.06S                  
PERRY *        PTSUNNY   66  63  90 SE5       30.03S                  
$$
 
IAZ004>006-015-016-023>025-035-036-131600-
   NORTH CENTRAL IOWA
  
CITY           SKY/WX    TMP DP  RH WIND       PRES   REMARKS
ALGONA *       CLOUDY    63  57  82 S8        30.02F                  
CLARION *      CLOUDY    63  61  94 SE5       30.03F                  
ESTHERVILLE    LGT RAIN  62  60  93 S8        29.99F                  
FORT DODGE *   CLOUDY    64  55  72 S5        30.04S                  
MASON CITY     CLOUDY    65  55  70 SE8       30.05S                  
FOREST CITY *  CLOUDY    64  54  68 S7        30.04R                  
WEBSTER CITY * CLOUDY    64  59  82 S6        30.01F                  
IOWA FALLS *   PTSUNNY   63  56  80 SE5       30.06S                  
$$

IAZ007>011-017>019-026>030-037>042-050>054-066-131600-
   NORTHEAST IOWA
  
CITY           SKY/WX    TMP DP  RH WIND       PRES   REMARKS
CEDAR RAPIDS   CLOUDY    68  59  73 S6        30.07S                  
CHARLES CITY * PTSUNNY   64  59  82 SE8       30.06S                  
CLINTON *      SUNNY     70  60  70 S3        30.09S                  
DECORAH *      CLOUDY    64  57  77 CALM      30.06F                  
DUBUQUE        CLOUDY    68  58  70 S5        30.09S                  
MONTICELLO *   CLOUDY    68  61  77 SE3       30.07F                  
OELWEIN *      CLOUDY    64  61  88 S6        30.08S                  
WATERLOO       PTSUNNY   68  55  63 SE9       30.05S                  
$$
 
IAZ064-065-067-068-078-131600-
   EAST CENTRAL IOWA
  
CITY           SKY/WX    TMP DP  RH WIND       PRES   REMARKS
DAVENPORT      MOSUNNY   69  58  67 E5        30.10S                  
IOWA CITY      CLOUDY    69  58  67 SE7       30.08S                  
MUSCATINE *    MOSUNNY   70  55  60 SE5       30.08S                  
QUAD CITIES    PTSUNNY   70  58  65 SE5       30.08S                  
$$
 
IAZ062-063-075>077-085>089-095>099-131600-
   SOUTHEAST IOWA
  
CITY           SKY/WX    TMP DP  RH WIND       PRES   REMARKS
BURLINGTON     SUNNY     70  61  73 SE7       30.07F                  
FAIRFIELD *    CLOUDY    73  54  49 S12       30.06S                  
FORT MADISON * SUNNY     70  63  78 S8        30.08S                  
KEOKUK *       SUNNY     72  59  64 SE10      30.06S                  
OSKALOOSA *      N/A     71  58  62 SE8       30.06S                  
OTTUMWA        CLOUDY    71  56  58 S8        30.06R                  
WASHINGTON *   PTSUNNY   70  61  73 VRB6      30.08S                  
$$

ABBREVIATIONS USED IN REMARKS
   TC - TEMPERATURES IN CELSIUS
  WCI - WIND CHILL INDEX
   HX - HEAT INDEX
  VSB - VISIBILITY  
$$